[[{"header":{"parameterUnit":"m.s-1","parameterCategory":1,"la1":30.2991,"la2":30.254,"lo1":-89.0895,"lo2":-89.0444,"dy":0.0017,"dx":0.0017,"nx":28,"ny":28,"refTime":"2025-05-15T21:00:00:Z","depth":0,"parameterNumber":2,"parameterNumberName":"U-component_of_WINDS"},"data":[0,0,0,0,0,0,0,0,0,0,0,0,0,0,0,0,0,0,0,0,0,0,0,0,0,0,0,0,0,0,0,0,0,0,0,0,0,0,0,0,0,0,0,0,0,0,0,0,0,0,0,0,0,0,0,0,0,0,2.311,2.3111,0,2.3244,2.3246,2.3248,2.3249,2.3248,2.3246,2.3244,2.3385,2.339,2.3396,0,0,0,0,0,0,0,0,0,0,0,0,0,2.2857,2.2861,2.311,2.3111,2.3113,2.3244,2.3246,2.3248,2.325,2.3248,2.3245,2.3244,2.3383,2.339,2.3396,0,0,0,0,0,0,0,0,0,0,0,0,0,2.2976,2.2863,2.3109,2.313,2.3133,2.3244,2.3246,2.3248,2.325,2.3247,2.3245,2.3243,2.3381,2.3389,2.3397,2.3498,0,0,2.3421,2.3425,0,0,0,0,0,0,0,0,2.297,2.2986,2.3125,2.3128,2.3132,2.3227,2.3208,2.3332,2.3251,2.3206,2.3244,2.3241,2.3335,2.3347,2.3378,2.3504,2.351,2.3422,2.3427,2.343,2.3433,0,0,0,0,0,0,0,2.2961,2.298,2.3163,2.3127,2.3131,2.3133,2.3147,2.3232,2.3283,2.3209,2.321,2.3226,2.3336,2.337,2.3381,2.3512,2.3422,2.3429,2.3434,2.3437,2.3729,2.3732,0,0,0,0,0,0,2.2949,2.2973,2.3159,2.3167,2.3043,2.3139,2.3155,2.3199,2.3282,2.3292,2.3228,2.3225,2.3357,2.3372,2.3386,2.3509,2.343,2.3438,2.3443,2.3726,2.373,2.3733,0,0,0,0,0,0,2.2943,2.2965,2.3153,2.307,2.3094,2.3147,2.3196,2.3203,2.3237,2.3296,2.3305,2.3252,2.3356,2.3375,2.347,2.3514,2.3442,2.3449,2.3723,2.3727,2.3731,2.3757,0,0,0,0,0,0,2.2936,2.2963,2.3001,2.3071,2.3099,2.3234,2.3199,2.3208,2.325,2.3248,2.3321,2.3331,2.3355,2.3458,2.3478,2.3524,2.3455,2.3719,2.3725,2.373,2.3753,2.3762,2.377,0,0,0,0,0,2.2927,2.3004,2.3003,2.3026,2.3147,2.3237,2.3253,2.3278,2.3254,2.3293,2.3331,2.3329,2.3506,2.3467,2.349,2.3539,2.3716,2.3723,2.3729,2.3749,2.376,2.377,0,0,0,0,0,0,2.2939,2.3013,2.3014,2.3115,2.317,2.3237,2.3287,2.3289,2.3353,2.3348,2.3378,2.3395,2.3489,2.3524,2.348,2.3641,2.3608,2.362,2.3615,2.3627,2.3635,2.3625,2.3462,0,0,0,0,0,2.2953,2.3019,2.3081,2.3165,2.3192,2.3235,2.3275,2.3289,2.3347,2.3371,2.3416,2.3473,2.3541,2.3586,2.3652,2.3757,2.3774,2.3803,2.3811,2.3818,2.3828,2.3886,2.39,2.3755,2.3754,2.3754,0,0,2.2984,2.3033,2.3073,2.3168,2.3212,2.328,2.3254,2.3327,2.3378,2.3382,2.3474,2.3509,2.3575,2.3676,2.3722,2.3708,2.3871,2.3827,2.3831,2.3838,2.3895,2.3908,2.3921,2.3759,2.3758,2.3758,0,0,2.3075,2.3118,2.3193,2.3237,2.3303,2.3332,2.3349,2.3417,2.344,2.3532,2.3537,2.3598,2.3716,2.3762,2.3801,2.391,2.391,2.393,2.3976,2.4033,2.4044,2.4055,2.4093,2.4107,2.394,2.394,2.394,0,2.3105,2.3207,2.3231,2.3305,2.3347,2.3352,2.3428,2.3471,2.3556,2.3585,2.3567,2.3714,2.3759,2.387,2.3897,2.3928,2.395,2.3922,2.404,2.4051,2.4061,2.4098,2.4113,2.3942,2.3942,2.3941,2.3941,0,2.3241,2.3312,2.3364,2.3445,2.3493,2.3567,2.3604,2.365,2.366,2.369,2.3785,2.3839,2.3916,2.3944,2.3955,2.4057,2.4046,2.4034,2.4001,2.4077,2.4112,2.4127,2.3945,2.3944,2.3944,2.3943,0,0,2.3344,2.3437,2.3456,2.3492,2.3566,2.3621,2.3696,2.3771,2.381,2.3868,2.3932,2.4031,2.402,2.4065,2.4081,2.4131,2.4214,2.4113,2.4115,2.413,2.433,2.4339,2.4355,2.4214,2.4217,2.4219,2.4325,0,2.3443,2.3575,2.3599,2.3715,2.378,2.3786,2.3852,2.3904,2.3934,2.3995,2.4029,2.4099,2.4079,2.4106,2.4155,2.4193,2.4254,2.4186,2.4275,2.4278,2.4258,2.4374,2.4383,2.448,2.4339,2.4341,2.4343,0,2.3576,2.3637,2.3759,2.3823,2.3852,2.391,2.398,2.4038,2.4098,2.4116,2.4166,2.4177,2.4255,2.4219,2.4328,2.4281,2.4319,2.4343,2.4347,2.4357,2.4315,2.4387,2.4512,2.4526,2.4365,2.4363,2.4362,0,2.3639,2.3752,2.3839,2.387,2.3948,2.3988,2.4023,2.408,2.4123,2.4185,2.4213,2.4284,2.4323,2.4377,2.4407,2.4378,2.4515,2.448,2.4533,2.4532,2.4562,2.456,2.4695,2.4586,2.4585,2.4585,2.4585,0,2.3747,2.3822,2.3868,2.3922,2.4006,2.4033,2.4115,2.4149,2.42,2.4261,2.4271,2.4328,2.4364,2.4427,2.4451,2.4538,2.4556,2.4573,2.4579,2.4573,2.457,2.4598,2.4592,2.4589,2.4588,2.4587,2.4587,0,2.3832,2.3866,2.3962,2.4027,2.4045,2.4104,2.416,2.4213,2.4243,2.432,2.434,2.4387,2.4461,2.4496,2.4589,2.4605,2.4704,2.4705,2.4683,2.4685,2.4736,2.4731,2.4894,2.4917,2.4792,2.4793,2.4794,0,2.3899,2.3956,2.4027,2.4068,2.4103,2.417,2.4214,2.4243,2.4288,2.4361,2.4405,2.4479,2.454,2.4659,2.4702,2.4773,2.4776,2.4828,2.4787,2.4778,2.4777,2.4773,2.4779,2.4836,2.4837,2.4838,2.4839,0,2.4014,2.4028,2.4091,2.4159,2.4211,2.4267,2.4322,2.4355,2.4393,2.4444,2.4519,2.4566,2.466,2.4734,2.4808,2.4844,2.4848,2.4851,2.4867,2.4861,2.4846,2.4855,2.4704,2.4848,2.4847,2.4846,2.4846,2.4845,2.4093,2.4144,2.4201,2.4271,2.4315,2.4365,2.4418,2.4454,2.4517,2.4595,2.4609,2.4689,2.4748,2.4847,2.4886,2.495,2.4938,2.4961,2.4967,2.4972,2.4974,2.4836,2.4963,2.4963,2.4963,2.4963,2.4962,0,2.4208,2.4246,2.4309,2.4385,2.4439,2.4437,2.4498,2.4544,2.4614,2.4668,2.4728,2.4814,2.4886,2.4935,2.5007,2.5049,2.5053,2.5067,2.5065,2.5073,2.4981,2.496,2.5063,2.5063,2.5063,2.5063,2.5063,2.5063,2.4275,2.4361,2.4382,2.449,2.4527,2.4605,2.464,2.4687,2.473,2.4826,2.4886,2.4916,2.4969,2.5045,2.5111,2.5124,2.515,2.5165,2.5177,2.509,2.508,2.507,2.505,2.517,2.517,2.5264,2.5265,2.5265]},{"header":{"parameterUnit":"m.s-1","parameterCategory":1,"la1":30.2991,"la2":30.254,"lo1":-89.0895,"lo2":-89.0444,"dy":0.0017,"dx":0.0017,"nx":28,"ny":28,"refTime":"2025-05-15T21:00:00:Z","depth":0,"parameterNumber":3,"parameterNumberName":"V-component_of_WINDS"},"data":[0,0,0,0,0,0,0,0,0,0,0,0,0,0,0,0,0,0,0,0,0,0,0,0,0,0,0,0,0,0,0,0,0,0,0,0,0,0,0,0,0,0,0,0,0,0,0,0,0,0,0,0,0,0,0,0,0,0,2.7113,2.7114,0,2.7198,2.7199,2.72,2.7213,2.7212,2.7212,2.7211,2.7296,2.7299,2.7302,0,0,0,0,0,0,0,0,0,0,0,0,0,2.696,2.6963,2.7113,2.7114,2.7115,2.7198,2.7199,2.7201,2.7213,2.7212,2.7211,2.7211,2.7295,2.7298,2.7302,0,0,0,0,0,0,0,0,0,0,0,0,0,2.7034,2.6964,2.7113,2.7132,2.7134,2.7198,2.7199,2.7201,2.7213,2.7212,2.7211,2.721,2.7294,2.7298,2.7302,2.7353,0,0,2.7316,2.7318,0,0,0,0,0,0,0,0,2.703,2.7039,2.7128,2.7131,2.7134,2.7194,2.7176,2.7252,2.7214,2.7183,2.7211,2.721,2.7263,2.727,2.7288,2.7357,2.736,2.7316,2.7319,2.7321,2.7322,0,0,0,0,0,0,0,2.7024,2.7036,2.7147,2.7129,2.7133,2.7135,2.7145,2.7191,2.7228,2.7186,2.7187,2.7197,2.7264,2.7284,2.729,2.7361,2.7316,2.732,2.7323,2.7325,2.7476,2.7478,0,0,0,0,0,0,2.7016,2.7031,2.7144,2.7149,2.7078,2.7139,2.7149,2.7176,2.7228,2.7235,2.7198,2.7197,2.7277,2.7285,2.7293,2.7357,2.7321,2.7325,2.7328,2.7475,2.7477,2.7478,0,0,0,0,0,0,2.7013,2.7026,2.7141,2.7091,2.7106,2.7143,2.7172,2.7178,2.7198,2.7237,2.7243,2.7211,2.7276,2.7287,2.7338,2.736,2.7327,2.7331,2.7473,2.7476,2.7477,2.7483,0,0,0,0,0,0,2.7008,2.7025,2.7045,2.7091,2.7108,2.7185,2.7174,2.718,2.7206,2.7206,2.7251,2.7258,2.7276,2.7331,2.7343,2.7365,2.7335,2.7472,2.7474,2.7477,2.7481,2.7485,2.7488,0,0,0,0,0,2.7003,2.7042,2.7046,2.7059,2.7134,2.7186,2.7196,2.7217,2.7207,2.7228,2.7253,2.7256,2.7355,2.7337,2.7349,2.7373,2.747,2.7474,2.7477,2.7479,2.7484,2.7488,0,0,0,0,0,0,2.6997,2.7049,2.7053,2.7109,2.7143,2.7188,2.7215,2.7221,2.7258,2.7256,2.728,2.729,2.734,2.7362,2.734,2.7425,2.7412,2.7418,2.741,2.7415,2.7418,2.7412,2.7338,0,0,0,0,0,2.7002,2.7041,2.7084,2.7128,2.7146,2.7177,2.72,2.7214,2.725,2.7264,2.7293,2.7327,2.7366,2.7391,2.7429,2.7484,2.7494,2.7506,2.751,2.7513,2.7518,2.7549,2.7556,2.7488,2.7488,2.7488,0,0,2.7013,2.7046,2.7069,2.7128,2.7156,2.7195,2.7189,2.723,2.726,2.727,2.7321,2.7343,2.7383,2.7436,2.7461,2.7456,2.7539,2.7517,2.7519,2.7522,2.7553,2.7559,2.7565,2.749,2.749,2.749,0,0,2.7054,2.7082,2.7124,2.7152,2.7195,2.7215,2.7225,2.727,2.7285,2.7337,2.7345,2.738,2.7446,2.7475,2.7498,2.7549,2.7554,2.756,2.758,2.761,2.7615,2.762,2.764,2.7646,2.7565,2.7565,2.7565,0,2.7062,2.7122,2.7144,2.7185,2.7211,2.7223,2.7265,2.7291,2.7344,2.7361,2.7354,2.7438,2.7465,2.7526,2.7539,2.7557,2.7569,2.7556,2.7613,2.7618,2.7623,2.7642,2.7649,2.7566,2.7565,2.7565,2.7565,0,2.7131,2.7172,2.72,2.7252,2.7281,2.7322,2.735,2.7376,2.7386,2.7408,2.746,2.7493,2.7539,2.7553,2.7564,2.7616,2.7611,2.7608,2.7596,2.763,2.7648,2.7655,2.7566,2.7566,2.7566,2.7566,0,0,2.7171,2.7234,2.7244,2.7268,2.7316,2.7349,2.739,2.7435,2.7458,2.7493,2.7529,2.7585,2.7583,2.7609,2.7622,2.7649,2.7689,2.7643,2.7644,2.7651,2.7749,2.7753,2.7761,2.7691,2.7693,2.7694,2.7747,0,2.7218,2.7294,2.7315,2.7379,2.7418,2.7429,2.7466,2.7499,2.752,2.7555,2.7577,2.7617,2.7611,2.7627,2.7653,2.7678,2.7709,2.7674,2.7725,2.7727,2.7717,2.777,2.7773,2.7821,2.7754,2.7755,2.7756,0,2.7284,2.7322,2.739,2.7434,2.7451,2.7484,2.7527,2.7561,2.7599,2.7612,2.7641,2.7652,2.7696,2.768,2.774,2.7716,2.7738,2.7753,2.7756,2.7763,2.7744,2.7779,2.7837,2.7845,2.7767,2.7766,2.7765,0,2.7308,2.7376,2.7426,2.7446,2.7498,2.7521,2.7543,2.758,2.7606,2.7643,2.7661,2.7702,2.7725,2.7756,2.7778,2.7764,2.7837,2.7823,2.785,2.7849,2.7866,2.7865,2.7929,2.7877,2.7877,2.7877,2.7877,0,2.7359,2.7401,2.7438,2.7469,2.7516,2.7539,2.7585,2.7607,2.764,2.7675,2.7686,2.7719,2.7745,2.7781,2.7798,2.7846,2.7856,2.7868,2.7873,2.7868,2.7867,2.7884,2.7882,2.7879,2.7879,2.7878,2.7878,0,2.7395,2.7421,2.7477,2.7522,2.7534,2.7567,2.7605,2.7635,2.7656,2.77,2.7712,2.7745,2.7788,2.7813,2.7866,2.7878,2.7932,2.7934,2.792,2.7922,2.7948,2.7946,2.8027,2.8039,2.7978,2.7978,2.7979,0,2.7427,2.7459,2.7508,2.7533,2.7556,2.7596,2.7623,2.7646,2.7674,2.7719,2.7744,2.7788,2.7825,2.7893,2.7921,2.7962,2.7966,2.7992,2.7973,2.7967,2.7968,2.7967,2.7971,2.7995,2.7996,2.7996,2.7997,0,2.7481,2.7493,2.7531,2.7575,2.7607,2.7642,2.7677,2.7696,2.7725,2.7755,2.78,2.7829,2.7884,2.7928,2.7972,2.7994,2.8001,2.8003,2.8011,2.8008,2.7999,2.8006,2.793,2.8001,2.8,2.8,2.8,2.8,2.7517,2.7547,2.7586,2.7629,2.7658,2.769,2.7721,2.7746,2.7784,2.7832,2.7843,2.7891,2.7927,2.7987,2.8011,2.8048,2.8043,2.8055,2.8059,2.8062,2.8063,2.7992,2.8055,2.8055,2.8055,2.8055,2.8055,0,2.7573,2.7599,2.7638,2.7687,2.7721,2.7724,2.7763,2.7791,2.7833,2.7867,2.7903,2.7955,2.7997,2.8029,2.8072,2.8096,2.81,2.8106,2.8105,2.8111,2.8064,2.8053,2.8102,2.8102,2.8102,2.8102,2.8102,2.8102,2.7607,2.7658,2.7674,2.7739,2.7765,2.7812,2.7834,2.7864,2.7892,2.7949,2.7985,2.8005,2.8038,2.8084,2.8123,2.8131,2.8147,2.8154,2.8163,2.8119,2.8114,2.8109,2.8099,2.8157,2.8157,2.8206,2.8207,2.8207]}]]